Location: Saratoga Springs
(43.0831°N, 73.7850°W)
Time: 15:12:26
(UTC-04:00)

Transit 4A - Visible Passes

Search period start: 12 June 2025 00:00
Search period end: 22 June 2025 00:00
Orbit: 866 x 975 km, 66.8° (Epoch: 12 June)

Date Brightness Start Highest point End Pass type
(mag) Time Alt. Az. Time Alt. Az. Time Alt. Az.
12 Jun 9.6 00:35:44 10° WNW 00:39:17 17° WSW 00:40:08 16° WSW visible
12 Jun 9.4 21:10:54 10° N 21:15:37 23° NE 21:20:14 10° E visible
12 Jun 7.8 22:56:36 10° NW 23:02:33 74° WSW 23:05:15 33° SSE visible
13 Jun 10.0 00:47:09 10° W 00:47:44 10° W 00:48:20 10° WSW visible
13 Jun 9.0 21:19:28 10° NNW 21:24:44 31° NE 21:29:53 10° ESE visible
13 Jun 8.3 23:05:35 10° NW 23:11:17 50° WSW 23:13:51 30° S visible
14 Jun 8.5 21:28:06 10° NNW 21:33:47 42° NE 21:39:02 11° ESE visible
14 Jun 8.9 23:14:42 10° NW 23:19:57 34° WSW 23:22:31 23° SSW visible
15 Jun 8.1 21:36:50 10° NNW 21:42:44 60° NE 21:47:44 14° SE visible
15 Jun 9.4 23:24:04 10° WNW 23:28:31 23° WSW 23:31:12 17° SW visible
16 Jun 7.8 21:45:37 10° NNW 21:51:35 85° ENE 21:56:28 15° SSE visible
16 Jun 9.9 23:33:56 10° WNW 23:37:02 15° WSW 23:39:57 10° SW visible
17 Jun 8.0 21:54:29 10° NW 22:00:23 67° WSW 22:05:15 15° SSE visible
18 Jun 8.6 22:03:29 10° NW 22:09:05 45° WSW 22:14:04 12° S visible
19 Jun 9.2 22:12:39 10° NW 22:17:43 30° WSW 22:22:41 10° SSW visible
20 Jun 9.8 22:22:07 10° WNW 22:26:17 20° WSW 22:30:24 10° SSW visible
21 Jun 10.1 22:32:14 10° WNW 22:34:46 13° WSW 22:37:17 10° SW visible
